Regional Weather Roundup
Issued by NWS

Home | Current Version | Previous Version | Text Only | Print | Product List | Glossary Off
Versions: 1 2 3 4 5 6 7 8 9 10 11 12 13 14 15 16 17 18 19 20 21 22 23 24 25 26 27 28 29 30 31 32 33 34 35 36 37 38 39 40 41 42 43 44 45 46 47 48 49 50

000
ASUS43 KIND 251759
RWRIN

WEATHER ROUNDUP FOR INDIANA
NATIONAL WEATHER SERVICE INDIANAPOLIS IN
200 PM EDT SAT APR 25 2015

NOTE: "FAIR" INDICATES FEW OR NO CLOUDS BELOW 12,000 FEET WITH NO
SIGNIFICANT WEATHER AND/OR OBSTRUCTIONS TO VISIBILITY.

* - STATION DOES NOT REPORT WEATHER SUCH AS PRECIPITATION OR FOG.

+ - STATION NOT QUALITY CONTROLLED BY THE NATIONAL WEATHER SERVICE.
    USE DATA WITH CAUTION...ESPECIALLY DEWPOINT AND RELATIVE
    HUMIDITY OBSERVATIONS.

INZ001>003-010>013-019-020-251900-
NORTHWEST INDIANA

CITY           SKY/WX    TMP DP  RH WIND       PRES   REMARKS
GARY /AIRPORT/ LGT RAIN  46  39  76 E113      29.79R

$$

LMZ046-743>745-251900-
SOUTHERN LAKE MICHIGAN

STATION/POSITION TIME  TEMP    WIND        PRES    WAVE
                       AIR SEA DIR/SP/G            HT
                 (UTC) (F)     (DEG/KT/KT) (MB)    (FT)
BURNS HARBOR     1700   45      90/  6/ 12 1008.8R
MICHIGAN CITY    1700   45      90/ 15/ 18   N/A
5NW MICH CITY    1700   45 45  120/ 12/ 16   N/A     2

$$

INZ004-005-014>016-021>024-251900-
NORTH CENTRAL INDIANA

CITY           SKY/WX    TMP DP  RH WIND       PRES   REMARKS
GOSHEN         LGT RAIN  46  41  82 E14       29.77F
6HR MIN TEMP:  42; 6HR MAX TEMP:  47; 6HR PCP:  0.09;

SOUTH BEND     LGT RAIN  47  44  90 E12       29.79R
6HR MIN TEMP:  44; 6HR MAX TEMP:  48; 6HR PCP:  0.09;


$$

INZ006>009-017-018-025>027-251900-
NORTHEAST INDIANA

CITY           SKY/WX    TMP DP  RH WIND       PRES   REMARKS
ANGOLA *+      PTSUNNY   45  39  81 E12       29.78F
FORT WAYNE     RAIN      44  41  89 E14       29.77S FOG
6HR MIN TEMP:  42; 6HR MAX TEMP:  46; 6HR PCP:  0.17;


$$

INZ028-029-035-036-043>045-051>053-251900-
WEST CENTRAL INDIANA

CITY           SKY/WX    TMP DP  RH WIND       PRES   REMARKS
CRAWFORDSVL +  LGT SNOW  44  40  86 E13       29.62F
6HR MIN TEMP:  44; 6HR MAX TEMP:  47; 6HR PCP:  0.49;

GREENCASTLE +  CLOUDY    46  43  87 E12       29.63F
LAFAYETTE      RAIN      45  43  93 NE17      29.67F FOG
6HR MIN TEMP:  44; 6HR MAX TEMP:  48; 6HR PCP:  0.36;

TERRE HAUTE    LGT RAIN  51  49  92 E13       29.60S FOG
6HR MIN TEMP:  50; 6HR MAX TEMP:  51; 6HR PCP:  0.25;


$$

INZ030>032-037>040-046>048-054>057-064-065-251900-
CENTRAL INDIANA

CITY           SKY/WX    TMP DP  RH WIND       PRES   REMARKS
ANDERSON       LGT RAIN  41  39  93 E12G20    29.71F
GREENWOOD *+   CLOUDY    46  43  87 NE10      29.67R
INDIANAPOLIS   TSTM      46  43  89 E21G28    29.63F FOG
6HR MIN TEMP:  46; 6HR MAX TEMP:  50; 6HR PCP:  0.36;

-EAGLE CREEK   RAIN      45  44  97 E10       29.65F FOG
6HR MIN TEMP:  45; 6HR MAX TEMP:  50; 6HR PCP:  0.38;

KOKOMO *+      CLOUDY    45  39  81 E20G26    29.68F
6HR MIN TEMP:  43; 6HR MAX TEMP:  46; 6HR PCP:  0.63;

MT COMFORT *+  CLOUDY    45 N/A N/A NE10      29.71R
SHELBYVILLE    RAIN      48  44  86 NE12      29.67R FOG
6HR MIN TEMP:  48; 6HR MAX TEMP:  51; 6HR PCP:  0.37;


$$

INZ033-034-041-042-049-050-058-059-251900-
EAST CENTRAL INDIANA

CITY           SKY/WX    TMP DP  RH WIND       PRES   REMARKS
MUNCIE         LGT RAIN  43  40  89 E20       29.70F FOG
6HR MIN TEMP:  43; 6HR MAX TEMP:  47; 6HR PCP:  0.31;


$$

INZ060-061-067>069-081>083-085>088-251900-
SOUTHWEST INDIANA

CITY           SKY/WX    TMP DP  RH WIND       PRES   REMARKS
EVANSVILLE     CLOUDY    66  59  78 SW7       29.53F
6HR MIN TEMP:  53; 6HR MAX TEMP:  67; 6HR PCP:  0.01;

HUNTINGBURG *+ CLOUDY    57  55  94 E3        29.55F
6HR MIN TEMP:  50; 6HR MAX TEMP:  57; 6HR PCP:  0.06;


$$

INZ062-063-066-070>080-084-089>092-251900-
SOUTH CENTRAL AND SOUTHEAST INDIANA

CITY           SKY/WX    TMP DP  RH WIND       PRES   REMARKS
BLOOMINGTON    CLOUDY    50  49  96 E7        29.59F FOG
6HR MIN TEMP:  49; 6HR MAX TEMP:  51; 6HR PCP:  0.09;

MADISON *+     CLOUDY    50  46  87 E9        29.61F
SEYMOUR +      CLOUDY    52  52 100 E8        29.60F FOG

$$




USA.gov is the U.S. government's official web portal to all federal, state and local government web resources and services.